�������l�o���
Date,Time,MP-1(��Sv/h),MP-2(��Sv/h),MP-3(��Sv/h),MP-4(��Sv/h),MP-5(��Sv/h),MP-6(��Sv/h),MP-7(��Sv/h),MP-8(��Sv/h),����,����(m/s),���J
2023/08/19,00:00,0.531,0.798,0.495,0.978,0.728,0.325,0.576,0.534,��,3.2,��
2023/08/19,00:10,0.532,0.801,0.493,0.978,0.727,0.324,0.577,0.534,��,4.8,��
2023/08/19,00:20,0.531,0.801,0.497,0.977,0.727,0.323,0.576,0.536,��,5.7,��
2023/08/19,00:30,0.532,0.801,0.494,0.978,0.727,0.325,0.576,0.536,��,5.5,��
2023/08/19,00:40,0.532,0.800,0.494,0.978,0.729,0.326,0.576,0.536,��,5.4,��
2023/08/19,00:50,0.532,0.800,0.494,0.977,0.728,0.325,0.577,0.536,��,5.0,��
2023/08/19,01:00,0.532,0.800,0.493,0.978,0.727,0.325,0.578,0.535,��,5.1,��
2023/08/19,01:10,0.532,0.800,0.494,0.980,0.726,0.325,0.577,0.536,��,5.0,��
2023/08/19,01:20,0.533,0.798,0.495,0.980,0.728,0.325,0.577,0.534,��,5.1,��
2023/08/19,01:30,0.532,0.800,0.494,0.979,0.730,0.325,0.576,0.535,��,4.9,��
2023/08/19,01:40,0.531,0.801,0.495,0.976,0.726,0.323,0.578,0.536,��,3.6,��
2023/08/19,01:50,0.532,0.801,0.494,0.978,0.727,0.324,0.576,0.535,��쐼,2.8,��
2023/08/19,02:00,0.532,0.800,0.493,0.980,0.726,0.324,0.577,0.535,��,3.9,��
2023/08/19,02:10,0.531,0.802,0.495,0.978,0.729,0.326,0.578,0.536,��,4.1,��
2023/08/19,02:20,0.532,0.799,0.495,0.980,0.729,0.325,0.577,0.535,��,4.5,��
2023/08/19,02:30,0.534,0.801,0.493,0.977,0.729,0.324,0.578,0.536,��쐼,3.3,��
2023/08/19,02:40,0.533,0.801,0.495,0.983,0.729,0.325,0.577,0.536,�쐼,1.5,��
2023/08/19,02:50,0.533,0.801,0.494,0.982,0.728,0.326,0.577,0.536,�k��,0.6,��
2023/08/19,03:00,0.533,0.801,0.496,0.978,0.728,0.325,0.576,0.536,�k,0.6,��
2023/08/19,03:10,0.534,0.801,0.496,0.980,0.728,0.325,0.576,0.535,�k�k��,1.1,��
2023/08/19,03:20,0.533,0.802,0.495,0.980,0.730,0.325,0.577,0.535,�k�k��,1.5,��
2023/08/19,03:30,0.534,0.799,0.495,0.981,0.727,0.325,0.577,0.534,�k�k��,1.4,��
2023/08/19,03:40,0.533,0.802,0.494,0.981,0.728,0.325,0.577,0.536,�k�k��,0.6,��
2023/08/19,03:50,0.533,0.801,0.495,0.980,0.729,0.324,0.577,0.535,-,CALM,��
2023/08/19,04:00,0.534,0.800,0.496,0.979,0.728,0.325,0.577,0.535,��쓌,1.7,��
2023/08/19,04:10,0.532,0.803,0.495,0.981,0.728,0.326,0.575,0.536,��쓌,2.5,��
2023/08/19,04:20,0.533,0.802,0.495,0.982,0.728,0.325,0.576,0.536,��,2.0,��
2023/08/19,04:30,0.534,0.801,0.495,0.981,0.727,0.325,0.577,0.536,��,1.5,��
2023/08/19,04:40,0.533,0.803,0.495,0.982,0.730,0.325,0.578,0.536,��,2.0,��
2023/08/19,04:50,0.533,0.801,0.496,0.982,0.728,0.325,0.577,0.535,��,1.5,��
2023/08/19,05:00,0.533,0.803,0.497,0.981,0.730,0.324,0.577,0.535,��쓌,1.5,��
2023/08/19,05:10,0.533,0.802,0.496,0.983,0.729,0.326,0.576,0.535,��,0.9,��
2023/08/19,05:20,0.533,0.802,0.494,0.982,0.727,0.325,0.575,0.534,��쓌,1.5,��
2023/08/19,05:30,0.534,0.803,0.496,0.981,0.731,0.325,0.576,0.535,�쓌,1.1,��
2023/08/19,05:40,0.533,0.801,0.495,0.980,0.730,0.326,0.576,0.536,��,1.2,��
2023/08/19,05:50,0.534,0.801,0.495,0.982,0.729,0.325,0.578,0.535,��,0.6,��
2023/08/19,06:00,0.534,0.802,0.495,0.981,0.729,0.326,0.577,0.534,-,CALM,��
2023/08/19,06:10,0.535,0.803,0.496,0.983,0.729,0.326,0.576,0.535,-,CALM,��
2023/08/19,06:20,0.536,0.803,0.496,0.982,0.728,0.326,0.577,0.534,-,CALM,��
2023/08/19,06:30,0.535,0.803,0.495,0.982,0.730,0.327,0.577,0.535,-,CALM,��
2023/08/19,06:40,0.533,0.802,0.496,0.982,0.729,0.327,0.578,0.536,�k�k��,1.1,��
2023/08/19,06:50,0.534,0.804,0.495,0.982,0.729,0.326,0.577,0.536,�k�k��,1.5,��
2023/08/19,07:00,0.535,0.802,0.496,0.982,0.729,0.325,0.576,0.535,�k,1.1,��
2023/08/19,07:10,0.534,0.803,0.495,0.980,0.728,0.327,0.577,0.537,�k,1.4,��
2023/08/19,07:20,0.534,0.800,0.496,0.981,0.729,0.326,0.577,0.535,�k,1.4,��
2023/08/19,07:30,0.534,0.800,0.497,0.979,0.729,0.327,0.578,0.536,�k,1.5,��
2023/08/19,07:40,0.533,0.801,0.496,0.982,0.730,0.327,0.577,0.537,�k,1.5,��
2023/08/19,07:50,0.533,0.803,0.495,0.983,0.728,0.326,0.578,0.536,�k�k��,1.7,��
2023/08/19,08:00,0.533,0.800,0.495,0.983,0.727,0.327,0.577,0.535,�k�k��,1.9,��
2023/08/19,08:10,0.533,0.802,0.496,0.980,0.729,0.324,0.576,0.535,�k�k��,1.7,��
2023/08/19,08:20,0.534,0.802,0.495,0.982,0.729,0.325,0.578,0.536,�k�k��,1.5,��
2023/08/19,08:30,0.533,0.803,0.494,0.983,0.728,0.325,0.577,0.536,�k��,1.5,��
2023/08/19,08:40,0.535,0.802,0.495,0.983,0.728,0.326,0.579,0.537,�k��,1.7,��
2023/08/19,08:50,0.533,0.804,0.497,0.981,0.726,0.325,0.578,0.535,���k��,1.7,��
2023/08/19,09:00,0.533,0.803,0.494,0.982,0.729,0.326,0.578,0.534,��,0.9,��
2023/08/19,09:10,0.533,0.801,0.495,0.983,0.729,0.325,0.578,0.533,���k��,1.2,��
2023/08/19,09:20,0.534,0.802,0.493,0.982,0.728,0.324,0.578,0.534,��,0.9,��
2023/08/19,09:30,0.532,0.800,0.495,0.981,0.730,0.324,0.578,0.534,���k��,1.2,��
2023/08/19,09:40,0.533,0.804,0.495,0.982,0.728,0.324,0.577,0.534,�k��,1.2,��
2023/08/19,09:50,0.534,0.802,0.493,0.983,0.729,0.325,0.577,0.535,���쓌,1.5,��
2023/08/19,10:00,0.535,0.802,0.494,0.982,0.729,0.324,0.578,0.535,���쓌,2.2,��
2023/08/19,10:10,0.533,0.802,0.494,0.981,0.730,0.325,0.577,0.534,�쓌,2.3,��
2023/08/19,10:20,0.533,0.802,0.495,0.981,0.731,0.325,0.576,0.532,�쓌,2.5,��
2023/08/19,10:30,0.533,0.804,0.497,0.981,0.731,0.324,0.576,0.535,�쓌,2.3,��
2023/08/19,10:40,0.534,0.804,0.496,0.979,0.729,0.325,0.578,0.536,�쓌,3.5,��
2023/08/19,10:50,0.535,0.802,0.498,0.982,0.733,0.326,0.577,0.535,�쓌,3.9,��
2023/08/19,11:00,0.533,0.804,0.496,0.983,0.734,0.325,0.577,0.534,��쓌,3.0,��
2023/08/19,11:10,0.534,0.806,0.497,0.984,0.734,0.325,0.577,0.536,�쓌,3.9,��
2023/08/19,11:20,0.535,0.807,0.496,0.983,0.732,0.324,0.577,0.537,��쓌,3.0,��
2023/08/19,11:30,0.534,0.807,0.496,0.983,0.731,0.324,0.577,0.535,�쓌,4.6,��
2023/08/19,11:40,0.532,0.808,0.497,0.985,0.734,0.324,0.575,0.536,��쓌,3.8,��
2023/08/19,11:50,0.534,0.807,0.497,0.982,0.732,0.324,0.575,0.535,��쓌,6.3,��
2023/08/19,12:00,0.535,0.808,0.497,0.980,0.733,0.325,0.576,0.536,��쓌,5.6,��
2023/08/19,12:10,0.535,0.805,0.498,0.979,0.731,0.324,0.576,0.537,��쓌,5.2,��
2023/08/19,12:20,0.536,0.806,0.498,0.980,0.732,0.324,0.577,0.538,�쓌,5.5,��
2023/08/19,12:30,0.535,0.806,0.499,0.982,0.733,0.325,0.576,0.536,��쓌,6.5,��
2023/08/19,12:40,0.536,0.806,0.498,0.981,0.734,0.325,0.578,0.538,��쓌,6.5,��
2023/08/19,12:50,0.536,0.806,0.498,0.982,0.734,0.325,0.577,0.537,��쓌,6.5,��
2023/08/19,13:00,0.537,0.807,0.495,0.982,0.733,0.325,0.577,0.537,��쓌,6.1,��
2023/08/19,13:10,0.536,0.806,0.496,0.983,0.733,0.324,0.578,0.536,��쓌,6.4,��
2023/08/19,13:20,0.536,0.806,0.496,0.983,0.734,0.323,0.577,0.535,��쓌,6.2,��
2023/08/19,13:30,0.537,0.804,0.496,0.986,0.734,0.325,0.577,0.537,��쓌,6.7,��
2023/08/19,13:40,0.537,0.806,0.496,0.985,0.734,0.326,0.576,0.537,��쓌,6.9,��
2023/08/19,13:50,0.536,0.805,0.496,0.985,0.734,0.324,0.577,0.535,��쓌,6.5,��
2023/08/19,14:00,0.536,0.806,0.497,0.985,0.734,0.325,0.577,0.536,��쓌,5.3,��
2023/08/19,14:10,0.537,0.806,0.498,0.984,0.734,0.326,0.578,0.537,��쓌,6.5,��
2023/08/19,14:20,0.535,0.804,0.497,0.981,0.734,0.325,0.579,0.535,��쓌,6.9,��
2023/08/19,14:30,0.536,0.808,0.498,0.987,0.736,0.325,0.578,0.537,��,6.0,��
2023/08/19,14:40,0.537,0.807,0.498,0.986,0.734,0.326,0.578,0.537,��,5.5,��
2023/08/19,14:50,0.536,0.806,0.498,0.988,0.736,0.326,0.578,0.534,��,5.9,��
2023/08/19,15:00,0.535,0.806,0.497,0.986,0.735,0.326,0.577,0.536,��쓌,5.8,��
2023/08/19,15:10,0.535,0.806,0.497,0.987,0.735,0.325,0.577,0.534,��쓌,7.3,��
2023/08/19,15:20,0.536,0.807,0.498,0.988,0.734,0.325,0.576,0.535,��쓌,8.5,��
2023/08/19,15:30,0.537,0.806,0.497,0.986,0.735,0.324,0.578,0.535,��쓌,7.9,��
2023/08/19,15:40,0.535,0.805,0.495,0.985,0.734,0.325,0.577,0.535,��,6.8,��
2023/08/19,15:50,0.536,0.806,0.497,0.987,0.735,0.325,0.577,0.534,��,5.9,��
2023/08/19,16:00,0.536,0.807,0.496,0.984,0.735,0.326,0.576,0.536,��쓌,6.5,��
2023/08/19,16:10,0.537,0.808,0.498,0.987,0.733,0.325,0.578,0.536,��,7.2,��
2023/08/19,16:20,0.536,0.808,0.496,0.987,0.732,0.324,0.577,0.535,��,8.4,��
2023/08/19,16:30,0.537,0.806,0.496,0.986,0.732,0.324,0.576,0.535,��,7.9,��
2023/08/19,16:40,0.536,0.806,0.495,0.985,0.733,0.324,0.576,0.535,��,8.0,��
2023/08/19,16:50,0.537,0.809,0.496,0.986,0.734,0.324,0.577,0.534,��,7.5,��
2023/08/19,17:00,0.537,0.808,0.495,0.986,0.733,0.324,0.576,0.535,��쓌,6.9,��
2023/08/19,17:10,0.536,0.809,0.497,0.987,0.733,0.324,0.577,0.536,��쓌,7.9,��
2023/08/19,17:20,0.536,0.809,0.497,0.984,0.732,0.324,0.577,0.535,��쓌,8.2,��
2023/08/19,17:30,0.538,0.810,0.495,0.986,0.735,0.325,0.575,0.534,��,7.1,��
2023/08/19,17:40,0.536,0.808,0.496,0.985,0.733,0.325,0.577,0.535,��,6.1,��
2023/08/19,17:50,0.537,0.808,0.496,0.987,0.734,0.324,0.576,0.534,��,5.9,��
2023/08/19,18:00,0.536,0.807,0.496,0.987,0.735,0.325,0.577,0.535,��,6.2,��
2023/08/19,18:10,0.537,0.807,0.496,0.988,0.734,0.326,0.576,0.536,��,6.7,��
2023/08/19,18:20,0.535,0.806,0.496,0.988,0.733,0.325,0.577,0.536,��,6.5,��
2023/08/19,18:30,0.536,0.809,0.497,0.989,0.735,0.326,0.578,0.535,��,5.1,��
2023/08/19,18:40,0.536,0.808,0.497,0.989,0.735,0.325,0.579,0.535,��,4.7,��
2023/08/19,18:50,0.539,0.808,0.498,0.986,0.734,0.326,0.578,0.535,��,5.6,��
2023/08/19,19:00,0.537,0.811,0.497,0.987,0.735,0.325,0.577,0.535,��,5.9,��
2023/08/19,19:10,0.537,0.809,0.499,0.989,0.734,0.325,0.578,0.535,��,5.2,��
2023/08/19,19:20,0.537,0.811,0.497,0.987,0.734,0.326,0.578,0.535,��,5.8,��
2023/08/19,19:30,0.539,0.810,0.497,0.990,0.736,0.326,0.579,0.536,��,6.7,��
2023/08/19,19:40,0.539,0.813,0.499,0.988,0.735,0.325,0.578,0.535,��,6.9,��
2023/08/19,19:50,0.538,0.811,0.499,0.986,0.734,0.325,0.578,0.536,��,6.6,��
2023/08/19,20:00,0.538,0.808,0.500,0.989,0.735,0.327,0.577,0.537,��,6.7,��
2023/08/19,20:10,0.537,0.808,0.497,0.988,0.735,0.327,0.577,0.536,��,5.2,��
2023/08/19,20:20,0.538,0.810,0.499,0.989,0.735,0.326,0.579,0.535,��,3.9,��
2023/08/19,20:30,0.538,0.808,0.498,0.990,0.734,0.326,0.579,0.535,��,3.5,��
2023/08/19,20:40,0.536,0.813,0.498,0.988,0.736,0.325,0.579,0.535,��,3.1,��
2023/08/19,20:50,0.538,0.809,0.497,0.989,0.737,0.327,0.578,0.536,��,4.1,��
2023/08/19,21:00,0.538,0.811,0.499,0.989,0.735,0.325,0.578,0.537,��,4.2,��
2023/08/19,21:10,0.539,0.808,0.500,0.987,0.737,0.326,0.578,0.535,��,4.2,��
2023/08/19,21:20,0.537,0.809,0.499,0.990,0.736,0.325,0.579,0.536,��,4.9,��
2023/08/19,21:30,0.537,0.810,0.499,0.992,0.734,0.326,0.579,0.534,��,5.9,��
2023/08/19,21:40,0.537,0.809,0.500,0.991,0.737,0.327,0.577,0.535,��,5.4,��
2023/08/19,21:50,0.538,0.810,0.498,0.988,0.734,0.326,0.578,0.537,��,5.8,��
2023/08/19,22:00,0.538,0.810,0.498,0.991,0.736,0.326,0.579,0.537,��,6.4,��
2023/08/19,22:10,0.538,0.808,0.499,0.989,0.737,0.325,0.579,0.536,��,6.4,��
2023/08/19,22:20,0.537,0.811,0.500,0.990,0.736,0.326,0.579,0.536,��,5.2,��
2023/08/19,22:30,0.537,0.810,0.499,0.990,0.735,0.327,0.579,0.536,��,5.6,��
2023/08/19,22:40,0.539,0.812,0.498,0.989,0.736,0.326,0.579,0.535,��,4.7,��
2023/08/19,22:50,0.538,0.809,0.498,0.989,0.736,0.326,0.579,0.536,��,4.3,��
2023/08/19,23:00,0.538,0.809,0.497,0.989,0.734,0.327,0.578,0.537,��,3.8,��
2023/08/19,23:10,0.537,0.810,0.498,0.990,0.737,0.326,0.580,0.536,��,3.9,��
2023/08/19,23:20,0.539,0.808,0.498,0.991,0.735,0.327,0.579,0.536,��,3.3,��
2023/08/19,23:30,0.537,0.812,0.499,0.991,0.737,0.327,0.578,0.537,��,2.8,��
2023/08/19,23:40,0.537,0.813,0.499,0.990,0.736,0.328,0.579,0.536,��쐼,2.6,��
2023/08/19,23:50,0.539,0.812,0.499,0.990,0.737,0.328,0.577,0.536,��쐼,2.2,��
